QPF
0.00 0.00 0.00 0.00 0.00 0.00 0.00 0.00 0.00 0.00 0.00 0.00 0.00 0.00 0.00 0.00 0.00 0.00 0.00 0.00 0.00 0.00 0.00 0.00 0.00 0.00 0.00 0.00 0.00 0.01 0.01 0.02 0.00 0.00 0.00 0.01 0.01 0.00 0.01 0.00 0.00 0.00 0.00
0.00 0.00 0.00 0.00 0.00 0.00 0.00 0.00 0.00 0.00 0.00 0.00 0.00 0.00 0.00 0.00 0.00 0.00 0.00 0.00 0.00 0.00 0.00 0.00 0.00 0.00 0.00 0.00 0.01 0.01 0.03 0.07 0.04 0.00 0.01 0.05 0.03 0.03 0.01 0.00 0.00 0.00 0.00
0.00 0.00 0.00 0.00 0.00 0.00 0.00 0.00 0.00 0.00 0.00 0.00 0.00 0.00 0.00 0.00 0.00 0.00 0.00 0.00 0.00 0.00 0.00 0.00 0.00 0.00 0.00 0.01 0.02 0.01 0.02 0.09 0.10 0.02 0.02 0.02 0.05 0.06 0.03 0.01 0.00 0.00 0.00
0.00 0.00 0.00 0.00 0.00 0.00 0.00 0.00 0.00 0.00 0.00 0.00 0.00 0.00 0.00 0.00 0.00 0.00 0.00 0.00 0.00 0.00 0.00 0.00 0.00 0.00 0.00 0.00 0.01 0.01 0.03 0.04 0.02 0.01 0.01 0.01 0.03 0.03 0.02 0.01 0.00 0.00 0.00
0.00 0.00 0.00 0.00 0.00 0.00 0.00 0.00 0.00 0.00 0.00 0.00 0.00 0.00 0.00 0.00 0.00 0.00 0.00 0.00 0.00 0.00 0.00 0.00 0.00 0.00 0.00 0.00 0.00 0.03 0.06 0.02 0.01 0.01 0.00 0.03 0.08 0.03 0.02 0.01 0.00 0.00 0.00
0.00 0.00 0.00 0.00 0.00 0.00 0.00 0.00 0.00 0.00 0.00 0.00 0.00 0.00 0.00 0.00 0.00 0.00 0.00 0.00 0.00 0.00 0.00 0.00 0.00 0.00 0.00 0.00 0.00 0.01 0.03 0.07 0.04 0.03 0.02 0.04 0.05 0.02 0.01 0.01 0.00 0.00 0.00
0.00 0.00 0.00 0.00 0.00 0.00 0.00 0.00 0.00 0.00 0.00 0.00 0.00 0.00 0.00 0.00 0.00 0.00 0.00 0.00 0.00 0.00 0.00 0.00 0.00 0.00 0.00 0.00 0.00 0.00 0.01 0.09 0.11 0.10 0.07 0.09 0.05 0.01 0.02 0.00 0.00 0.00 0.00
0.00 0.00 0.00 0.00 0.00 0.00 0.00 0.00 0.00 0.00 0.00 0.00 0.00 0.00 0.00 0.00 0.00 0.00 0.00 0.00 0.00 0.00 0.00 0.00 0.00 0.00 0.00 0.00 0.00 0.00 0.02 0.08 0.13 0.15 0.14 0.08 0.03 0.06 0.03 0.00 0.00 0.00 0.00
0.00 0.00 0.00 0.00 0.00 0.00 0.00 0.00 0.00 0.00 0.00 0.00 0.00 0.00 0.00 0.00 0.00 0.00 0.00 0.00 0.00 0.00 0.00 0.00 0.00 0.00 0.00 0.00 0.00 0.00 0.00 0.07 0.12 0.13 0.11 0.07 0.05 0.06 0.03 0.01 0.00 0.00 0.00
0.00 0.00 0.00 0.00 0.00 0.00 0.00 0.00 0.00 0.00 0.00 0.00 0.00 0.00 0.00 0.00 0.00 0.00 0.00 0.00 0.00 0.00 0.00 0.00 0.00 0.00 0.00 0.00 0.00 0.00 0.01 0.07 0.07 0.06 0.04 0.03 0.02 0.02 0.01 0.00 0.00 0.00 0.00
0.00 0.00 0.00 0.00 0.00 0.00 0.00 0.00 0.00 0.00 0.00 0.00 0.00 0.00 0.00 0.00 0.00 0.00 0.00 0.00 0.00 0.00 0.00 0.00 0.00 0.00 0.00 0.00 0.00 0.01 0.03 0.02 0.03 0.03 0.04 0.05 0.07 0.07 0.01 0.00 0.00 0.00 0.00
0.00 0.00 0.00 0.00 0.00 0.00 0.00 0.00 0.00 0.00 0.00 0.00 0.00 0.00 0.00 0.00 0.00 0.00 0.00 0.00 0.00 0.00 0.00 0.00 0.00 0.00 0.00 0.00 0.00 0.03 0.06 0.07 0.05 0.02 0.05 0.09 0.10 0.05 0.00 0.00 0.00 0.00 0.00
0.00 0.00 0.00 0.00 0.00 0.00 0.00 0.00 0.00 0.00 0.00 0.00 0.00 0.00 0.00 0.00 0.00 0.00 0.00 0.00 0.00 0.00 0.00 0.00 0.00 0.00 0.00 0.00 0.00 0.01 0.03 0.06 0.04 0.01 0.03 0.07 0.05 0.00 0.00 0.00 0.00 0.00 0.00
0.00 0.00 0.00 0.00 0.00 0.00 0.00 0.00 0.00 0.00 0.00 0.00 0.00 0.00 0.00 0.00 0.00 0.00 0.00 0.00 0.00 0.00 0.00 0.00 0.00 0.00 0.00 0.00 0.00 0.00 0.02 0.03 0.02 0.04 0.05 0.02 0.00 0.00 0.00 0.00 0.00 0.01 0.02
0.01 0.00 0.00 0.00 0.00 0.00 0.00 0.00 0.00 0.00 0.00 0.00 0.00 0.00 0.00 0.00 0.00 0.00 0.00 0.00 0.00 0.00 0.00 0.00 0.00 0.00 0.00 0.00 0.00 0.01 0.02 0.02 0.03 0.02 0.01 0.00 0.00 0.00 0.00 0.00 0.00 0.01 0.03
0.01 0.00 0.00 0.00 0.00 0.00 0.00 0.00 0.00 0.00 0.00 0.00 0.00 0.00 0.00 0.00 0.00 0.00 0.00 0.00 0.00 0.00 0.00 0.00 0.00 0.00 0.00 0.00 0.00 0.00 0.01 0.03 0.04 0.03 0.00 0.00 0.00 0.00 0.00 0.00 0.00 0.00 0.03
0.01 0.01 0.00 0.00 0.00 0.00 0.00 0.00 0.00 0.00 0.00 0.00 0.00 0.00 0.00 0.00 0.00 0.00 0.00 0.00 0.00 0.00 0.00 0.00 0.00 0.00 0.00 0.00 0.00 0.00 0.02 0.05 0.07 0.03 0.02 0.01 0.00 0.00 0.00 0.00 0.00 0.01 0.01
0.01 0.00 0.01 0.01 0.01 0.00 0.00 0.00 0.00 0.00 0.00 0.00 0.00 0.00 0.00 0.00 0.00 0.00 0.00 0.00 0.00 0.00 0.00 0.00 0.00 0.01 0.02 0.01 0.00 0.00 0.01 0.01 0.02 0.03 0.05 0.01 0.01 0.01 0.00 0.00 0.01 0.01 0.01
0.01 0.01 0.01 0.01 0.01 0.01 0.01 0.00 0.00 0.01 0.01 0.00 0.00 0.00 0.00 0.00 0.00 0.00 0.00 0.00 0.00 0.00 0.00 0.00 0.01 0.03 0.05 0.02 0.02 0.02 0.02 0.05 0.04 0.05 0.05 0.03 0.01 0.01 0.01 0.02 0.00 0.00 0.00
0.01 0.00 0.01 0.01 0.01 0.01 0.01 0.00 0.01 0.01 0.01 0.01 0.00 0.00 0.00 0.00 0.00 0.00 0.00 0.00 0.00 0.00 0.00 0.00 0.02 0.05 0.07 0.04 0.02 0.03 0.06 0.09 0.08 0.07 0.05 0.04 0.02 0.02 0.01 0.01 0.00 0.00 0.01
0.00 0.00 0.00 0.01 0.00 0.00 0.00 0.01 0.01 0.01 0.01 0.00 0.00 0.00 0.00 0.00 0.00 0.00 0.00 0.00 0.00 0.00 0.00 0.02 0.05 0.08 0.08 0.06 0.02 0.01 0.01 0.02 0.03 0.03 0.02 0.02 0.01 0.01 0.01 0.00 0.01 0.02 0.02
0.00 0.00 0.00 0.00 0.00 0.00 0.00 0.00 0.00 0.00 0.00 0.00 0.00 0.00 0.00 0.00 0.00 0.00 0.00 0.00 0.00 0.01 0.03 0.05 0.11 0.10 0.02 0.00 0.00 0.00 0.00 0.00 0.00 0.00 0.01 0.02 0.01 0.00 0.00 0.00 0.01 0.02 0.01
0.00 0.00 0.00 0.00 0.00 0.00 0.01 0.00 0.00 0.00 0.00 0.00 0.00 0.00 0.00 0.00 0.00 0.00 0.00 0.00 0.02 0.04 0.05 0.05 0.08 0.04 0.00 0.00 0.00 0.00 0.00 0.00 0.00 0.00 0.00 0.00 0.00 0.00 0.01 0.00 0.00 0.00 0.00
0.00 0.00 0.00 0.00 0.00 0.00 0.00 0.00 0.00 0.00 0.00 0.00 0.00 0.00 0.00 0.00 0.00 0.01 0.02 0.04 0.09 0.08 0.08 0.03 0.01 0.00 0.00 0.00 0.00 0.00 0.00 0.00 0.00 0.00 0.00 0.00 0.00 0.00 0.00 0.00 0.00 0.00 0.00
0.00 0.00 0.00 0.00 0.00 0.00 0.00 0.00 0.00 0.00 0.00 0.00 0.00 0.00 0.00 0.00 0.03 0.04 0.04 0.07 0.05 0.03 0.04 0.01 0.01 0.00 0.01 0.00 0.00 0.00 0.00 0.00 0.00 0.00 0.00 0.00 0.00 0.00 0.00 0.00 0.00 0.00 0.00
0.00 0.00 0.00 0.00 0.00 0.00 0.00 0.00 0.00 0.00 0.00 0.00 0.00 0.00 0.00 0.00 0.02 0.02 0.03 0.03 0.02 0.02 0.02 0.02 0.01 0.02 0.01 0.00 0.00 0.00 0.00 0.00 0.00 0.00 0.00 0.00 0.00 0.00 0.00 0.00 0.00 0.00 0.00
MSLP
1000.07 1000.73 1001.26 1001.77 1002.38 1003.06 1003.35 1003.90 1004.38 1004.95 1005.38 1005.73 1005.96 1006.27 1006.59 1006.98 1007.35 1007.72 1007.98 1008.29 1008.56 1008.86 1009.08 1009.12 1009.10 1009.09 1009.19 1009.50 1009.50 1010.13 1010.36 1010.33 1010.41 1008.65 1008.65 1008.59 1008.85 1008.80 1009.04 1008.98 1008.77 1008.48 1008.90
1000.42 1000.84 1001.24 1001.84 1002.03 1002.62 1003.05 1003.67 1004.23 1004.64 1005.19 1005.48 1005.86 1006.08 1006.35 1006.67 1007.09 1007.27 1007.41 1007.61 1007.84 1008.07 1008.16 1008.38 1008.31 1008.38 1008.78 1008.92 1009.16 1009.15 1009.89 1009.87 1009.93 1009.29 1008.81 1008.63 1008.83 1008.73 1008.84 1008.88 1008.79 1008.67 1008.48
1000.96 1001.42 1001.67 1001.98 1002.03 1002.18 1002.68 1003.37 1003.95 1004.36 1004.90 1005.30 1005.59 1005.79 1006.03 1006.31 1006.64 1006.89 1006.98 1007.08 1007.27 1007.50 1007.67 1007.83 1007.96 1008.14 1008.23 1008.18 1008.61 1008.59 1009.13 1009.34 1008.86 1009.14 1008.17 1008.08 1008.41 1008.70 1008.64 1008.90 1008.74 1008.79 1009.01
1000.64 1000.86 1001.23 1001.67 1001.82 1002.20 1002.57 1003.11 1003.55 1004.04 1004.55 1004.87 1005.10 1005.27 1005.57 1005.87 1006.14 1006.41 1006.66 1006.89 1007.10 1007.23 1007.45 1007.66 1007.68 1007.76 1007.80 1007.77 1007.73 1007.98 1008.29 1008.53 1007.90 1008.21 1007.98 1007.45 1007.77 1008.12 1008.48 1008.18 1008.29 1008.70 1008.51
1000.79 1000.45 1000.57 1000.98 1001.25 1001.82 1002.40 1002.48 1002.92 1003.50 1003.97 1004.42 1004.70 1004.89 1005.22 1005.54 1005.75 1006.11 1006.43 1006.66 1006.88 1007.10 1007.35 1007.41 1007.34 1007.41 1007.47 1007.43 1007.30 1007.20 1007.41 1007.53 1007.16 1007.37 1007.36 1007.49 1007.35 1007.60 1007.83 1007.45 1007.61 1007.94 1008.20
1001.11 1000.68 1000.63 1000.76 1000.87 1001.23 1001.75 1002.19 1002.35 1002.85 1003.40 1003.90 1004.30 1004.45 1004.81 1005.00 1005.77 1006.22 1006.52 1006.54 1006.77 1006.91 1006.86 1006.77 1006.73 1006.78 1006.59 1006.70 1006.65 1006.64 1006.70 1006.74 1006.75 1006.69 1006.29 1006.53 1006.53 1007.12 1007.15 1007.11 1007.21 1007.47 1007.25
1001.10 1001.01 1000.92 1000.78 1000.69 1000.93 1001.27 1001.68 1002.07 1002.35 1002.88 1003.50 1003.95 1004.28 1004.62 1005.01 1005.63 1006.00 1006.39 1006.32 1006.46 1006.52 1006.51 1006.37 1006.16 1005.96 1006.15 1006.03 1005.78 1005.64 1005.82 1005.91 1006.15 1005.63 1005.62 1005.68 1005.76 1006.12 1006.37 1006.70 1006.82 1006.67 1006.73
1000.49 1000.35 1000.42 1000.64 1000.82 1000.65 1000.99 1001.11 1001.61 1002.09 1002.28 1002.99 1003.65 1004.04 1004.47 1004.81 1005.38 1005.66 1006.01 1006.05 1006.01 1006.14 1006.20 1006.12 1005.91 1005.73 1005.54 1005.56 1005.21 1004.78 1004.36 1004.53 1004.83 1005.05 1004.94 1005.07 1005.04 1005.36 1005.95 1006.00 1006.49 1006.58 1007.05
999.99 1000.08 1000.12 1000.61 1000.65 1000.42 1000.63 1000.92 1001.30 1001.69 1002.07 1002.40 1003.00 1003.57 1004.05 1004.48 1005.04 1005.31 1005.60 1005.31 1005.37 1005.63 1005.68 1005.53 1005.35 1005.23 1005.02 1005.06 1005.21 1004.64 1004.17 1004.20 1004.43 1004.49 1004.78 1004.93 1005.02 1005.30 1005.76 1006.21 1006.07 1006.04 1006.15
998.89 999.00 999.30 999.54 999.58 999.44 1000.07 1000.67 1000.85 1001.15 1001.55 1001.86 1002.36 1002.87 1003.32 1003.83 1004.50 1004.87 1005.04 1004.85 1005.05 1005.18 1005.07 1004.90 1004.80 1004.94 1004.70 1004.62 1004.92 1004.54 1003.71 1003.57 1004.34 1004.58 1004.80 1004.85 1005.23 1005.17 1005.79 1005.49 1005.40 1005.39 1005.33
997.83 997.98 998.24 998.50 998.72 998.94 999.39 999.90 1000.35 1000.43 1000.90 1001.32 1001.70 1002.27 1002.80 1003.17 1003.59 1004.23 1004.62 1004.72 1004.65 1004.60 1004.41 1004.07 1003.74 1003.95 1004.18 1004.25 1004.37 1003.98 1003.20 1002.94 1003.69 1003.85 1004.25 1004.70 1004.48 1005.99 1005.72 1005.35 1005.49 1005.30 1005.14
996.45 996.48 996.80 997.37 997.69 998.20 998.62 999.04 999.45 999.85 1000.13 1000.63 1001.10 1001.50 1001.93 1002.53 1003.18 1003.63 1004.03 1004.22 1004.32 1004.41 1004.15 1003.69 1003.38 1003.60 1003.92 1003.81 1003.70 1003.36 1003.24 1003.23 1003.38 1003.83 1004.02 1004.47 1005.05 1005.62 1005.05 1005.33 1005.73 1005.54 1005.61
995.06 995.03 995.53 996.14 996.55 997.21 997.60 997.87 998.32 998.75 999.11 999.55 1000.08 1000.54 1000.56 1001.44 1002.03 1002.99 1003.26 1003.51 1003.99 1004.30 1003.81 1003.56 1003.59 1003.73 1003.67 1003.57 1003.09 1003.14 1003.07 1002.93 1002.93 1003.32 1003.83 1003.93 1004.43 1004.88 1005.05 1005.60 1005.61 1005.81 1006.12
993.51 993.73 994.16 994.76 995.45 996.09 996.58 997.03 997.13 997.42 997.93 998.57 998.94 999.31 999.72 1000.55 1000.82 1001.21 1001.87 1002.42 1002.84 1003.49 1003.50 1003.49 1003.31 1003.32 1003.24 1002.99 1002.85 1003.13 1002.54 1002.48 1002.70 1002.87 1003.38 1003.77 1004.15 1004.85 1004.94 1004.96 1005.21 1005.54 1005.80
992.21 992.80 993.12 993.63 994.48 995.12 995.60 995.80 996.15 996.66 997.16 997.65 997.89 998.63 999.24 999.60 1000.02 1000.73 1001.12 1001.23 1001.46 1001.68 1002.22 1002.29 1002.50 1002.44 1002.34 1002.29 1002.41 1002.48 1002.39 1002.52 1002.76 1002.87 1003.01 1003.32 1004.09 1004.28 1004.60 1004.73 1005.01 1005.37 1005.34
991.22 991.76 992.48 993.08 993.67 994.37 994.93 995.36 996.00 996.60 997.10 997.83 997.90 998.28 998.77 999.04 999.54 1000.39 1001.02 1001.36 1001.73 1002.09 1002.13 1001.54 1001.61 1001.49 1001.38 1001.48 1001.63 1001.82 1001.91 1002.08 1002.24 1002.22 1002.32 1003.02 1003.51 1003.76 1004.30 1004.46 1004.97 1005.04 1005.14
990.77 991.38 991.92 992.48 993.03 993.63 994.10 994.61 995.39 997.10 997.42 997.61 998.08 998.34 998.68 998.70 999.97 1000.50 1000.92 1001.33 1001.39 1001.79 1001.17 1000.79 1000.73 1000.62 1000.41 1000.54 1000.69 1000.97 1001.16 1001.48 1001.56 1001.75 1002.15 1002.53 1002.93 1003.27 1003.96 1004.50 1004.64 1004.97 1004.89
990.74 991.38 991.87 992.33 992.92 993.12 993.34 993.99 994.69 995.43 996.21 997.08 998.02 998.58 998.99 999.22 999.76 1000.08 1000.44 1000.77 1000.87 1001.14 1000.16 1000.02 999.90 999.77 999.63 999.47 999.70 1000.09 1000.54 1001.06 1001.13 1001.62 1001.92 1002.31 1002.77 1003.35 1003.92 1003.95 1004.25 1004.60 1004.76
990.75 990.99 991.45 992.03 992.40 992.74 993.06 993.61 994.25 994.83 995.29 995.74 996.52 997.86 998.10 998.56 999.24 999.86 1000.14 1000.15 999.30 998.90 999.42 999.27 999.05 998.65 998.85 998.79 999.03 999.43 999.98 1000.35 1000.67 1001.24 1001.85 1002.21 1002.91 1003.64 1003.97 1004.12 1004.51 1004.96 1005.42
990.78 991.30 991.60 991.60 991.97 992.39 992.76 993.18 993.65 994.00 994.48 994.99 995.56 996.15 996.89 998.27 998.68 998.96 999.31 999.07 998.75 998.21 998.14 998.24 998.01 997.91 998.18 998.28 998.65 998.97 999.65 1000.17 1000.44 1001.13 1001.64 1002.27 1002.81 1003.44 1004.01 1004.38 1004.73 1005.08 1005.48
990.78 991.12 991.35 991.55 991.89 992.27 992.61 992.97 993.35 993.81 994.18 994.62 995.00 995.45 995.91 996.59 996.57 996.74 996.92 997.36 997.31 997.14 997.24 997.31 997.23 997.44 997.64 997.89 998.27 998.64 999.16 999.66 1000.36 1000.85 1001.47 1001.88 1002.33 1003.34 1003.73 1004.21 1004.59 1004.68 1005.26
990.89 990.98 991.32 991.53 991.89 992.28 992.43 992.71 993.02 993.47 993.93 994.07 994.35 994.93 995.54 996.06 995.86 995.88 995.89 995.91 996.09 996.29 996.34 996.75 996.86 997.03 997.08 996.85 996.85 997.25 997.92 998.76 999.42 1000.23 1000.63 1001.24 1002.05 1003.05 1003.72 1004.11 1004.34 1004.89 1005.77
990.94 991.05 991.16 991.33 991.69 992.23 992.56 992.67 992.93 993.42 993.26 993.23 993.50 993.87 994.91 995.23 995.35 995.29 995.36 995.45 995.38 995.61 996.09 996.30 996.53 996.61 996.08 996.33 996.56 997.15 997.64 998.23 998.90 999.76 1000.58 1001.49 1002.31 1002.85 1003.43 1004.10 1004.64 1005.35 1005.84
991.19 991.23 991.32 991.40 991.60 991.72 991.82 992.15 992.53 992.80 992.71 992.73 992.96 993.48 993.77 994.14 994.41 994.41 994.59 994.73 995.05 995.36 995.59 995.89 995.66 995.57 996.01 996.52 997.18 997.37 997.87 998.56 999.29 1000.35 1000.90 1001.25 1002.20 1002.99 1003.40 1004.16 1004.99 1006.07 1007.03
990.38 990.78 991.11 991.21 991.28 991.43 991.68 991.96 992.17 992.25 992.44 992.62 992.90 993.50 993.98 994.09 994.26 994.39 994.39 994.64 994.87 995.14 995.25 995.39 995.41 995.91 996.54 996.94 997.19 997.73 998.62 999.16 1000.16 1000.82 1001.39 1002.02 1002.51 1003.04 1003.93 1004.89 1005.85 1006.65 1007.25
991.71 991.28 991.17 991.07 991.16 991.14 991.68 992.12 992.24 992.37 992.54 992.74 993.27 993.79 994.07 994.37 994.56 994.65 994.59 994.84 994.88 994.97 995.26 995.70 996.01 996.59 997.12 997.56 998.02 998.53 999.28 999.73 1000.62 1000.79 1001.78 1002.46 1003.08 1003.72 1004.34 1005.25 1006.02 1006.74 1007.52
Thickness
5659 5658 5655 5652 5651 5651 5652 5654 5656 5657 5659 5661 5665 5667 5667 5668 5669 5669 5669 5670 5669 5669 5671 5671 5672 5675 5675 5674 5675 5670 5668 5670 5668 5686 5687 5689 5685 5686 5683 5683 5684 5685 5681
5641 5641 5640 5638 5641 5640 5641 5642 5644 5644 5646 5650 5652 5655 5656 5658 5659 5661 5663 5665 5666 5667 5670 5670 5671 5673 5669 5670 5668 5670 5665 5667 5667 5671 5678 5681 5678 5680 5678 5675 5678 5679 5679
5618 5618 5620 5624 5630 5633 5633 5633 5633 5634 5635 5637 5640 5643 5646 5649 5651 5654 5658 5661 5663 5664 5664 5664 5665 5665 5665 5667 5663 5666 5663 5664 5668 5665 5674 5679 5677 5674 5673 5668 5672 5671 5668
5606 5609 5612 5615 5619 5621 5623 5624 5625 5626 5625 5628 5631 5635 5638 5641 5644 5647 5650 5652 5654 5657 5658 5658 5660 5660 5661 5661 5663 5661 5661 5663 5670 5667 5671 5677 5674 5672 5668 5668 5668 5665 5666
5594 5602 5607 5610 5615 5614 5615 5620 5620 5619 5620 5621 5623 5627 5630 5633 5637 5639 5641 5644 5646 5647 5649 5651 5654 5655 5655 5656 5658 5659 5660 5661 5666 5667 5669 5670 5669 5666 5664 5670 5668 5666 5664
5576 5587 5594 5598 5605 5610 5611 5613 5615 5614 5614 5615 5616 5620 5622 5627 5624 5626 5630 5634 5637 5640 5643 5647 5651 5652 5654 5653 5653 5653 5657 5660 5660 5663 5671 5670 5670 5664 5664 5666 5665 5662 5663
5559 5565 5574 5584 5591 5597 5602 5604 5606 5608 5608 5607 5609 5611 5614 5617 5616 5618 5620 5628 5631 5634 5638 5642 5647 5652 5651 5654 5656 5655 5656 5654 5655 5662 5667 5668 5668 5667 5664 5659 5661 5663 5664
5552 5559 5563 5568 5573 5583 5588 5595 5597 5598 5601 5601 5600 5603 5606 5609 5608 5611 5613 5622 5626 5629 5633 5637 5642 5645 5649 5650 5655 5660 5664 5663 5661 5662 5668 5668 5670 5669 5662 5661 5658 5660 5657
5541 5545 5550 5552 5559 5568 5575 5581 5585 5588 5590 5594 5595 5596 5599 5601 5600 5603 5608 5618 5622 5624 5628 5633 5639 5642 5644 5642 5648 5655 5660 5659 5657 5660 5660 5663 5665 5661 5656 5653 5656 5656 5655
5531 5537 5541 5546 5554 5563 5565 5567 5575 5579 5581 5586 5588 5590 5594 5597 5593 5596 5603 5611 5614 5618 5624 5630 5631 5636 5638 5638 5643 5649 5657 5659 5651 5652 5654 5655 5654 5656 5650 5657 5658 5655 5657
5521 5525 5531 5538 5546 5552 5555 5559 5563 5570 5572 5576 5581 5584 5586 5591 5594 5590 5593 5601 5607 5612 5620 5628 5635 5631 5632 5635 5636 5645 5656 5659 5653 5653 5651 5647 5652 5640 5646 5651 5653 5653 5654
5508 5517 5524 5529 5535 5538 5544 5550 5555 5559 5564 5567 5572 5577 5582 5585 5583 5585 5585 5589 5597 5604 5611 5621 5630 5626 5627 5633 5635 5641 5645 5648 5649 5645 5645 5641 5636 5634 5643 5645 5644 5647 5649
5489 5504 5512 5519 5527 5530 5537 5542 5547 5552 5558 5564 5569 5573 5581 5582 5583 5576 5579 5582 5585 5590 5603 5611 5613 5617 5620 5623 5630 5635 5639 5644 5644 5642 5636 5637 5636 5636 5638 5636 5639 5640 5638
5477 5488 5499 5508 5516 5523 5529 5534 5543 5551 5557 5560 5567 5571 5575 5575 5580 5582 5583 5584 5584 5586 5592 5600 5607 5611 5616 5620 5627 5630 5640 5641 5640 5639 5634 5632 5633 5630 5633 5636 5637 5636 5633
5476 5478 5490 5500 5505 5512 5521 5531 5539 5546 5551 5556 5561 5563 5563 5567 5573 5573 5575 5581 5587 5591 5591 5597 5603 5611 5616 5620 5624 5629 5632 5633 5632 5632 5631 5629 5627 5631 5630 5633 5633 5631 5631
5478 5481 5484 5490 5496 5501 5510 5520 5524 5533 5536 5537 5544 5551 5554 5559 5560 5557 5556 5560 5563 5566 5577 5591 5597 5605 5613 5618 5622 5626 5629 5629 5629 5630 5633 5630 5628 5630 5628 5630 5627 5628 5627
5477 5481 5483 5483 5485 5488 5498 5513 5524 5515 5517 5523 5526 5534 5538 5550 5541 5540 5543 5546 5550 5554 5577 5586 5591 5600 5612 5617 5623 5626 5627 5626 5627 5628 5630 5630 5630 5630 5625 5622 5625 5623 5625
5478 5477 5479 5478 5479 5485 5494 5505 5513 5517 5519 5520 5513 5520 5524 5529 5531 5534 5536 5539 5551 5548 5570 5579 5588 5599 5610 5620 5625 5626 5625 5621 5624 5624 5627 5628 5627 5623 5620 5623 5624 5622 5623
5481 5481 5483 5483 5487 5490 5497 5503 5506 5511 5515 5520 5523 5514 5522 5525 5526 5527 5530 5543 5558 5564 5564 5576 5589 5604 5610 5619 5625 5626 5626 5623 5625 5624 5623 5624 5619 5614 5615 5619 5617 5613 5612
5486 5485 5488 5494 5497 5500 5502 5504 5508 5514 5517 5521 5525 5529 5531 5521 5528 5533 5536 5544 5552 5562 5571 5581 5593 5604 5610 5618 5620 5624 5624 5621 5623 5621 5620 5617 5614 5611 5609 5610 5611 5611 5611
5499 5500 5501 5504 5505 5507 5509 5511 5514 5514 5516 5518 5522 5527 5525 5531 5542 5546 5550 5552 5560 5568 5576 5586 5597 5604 5611 5614 5616 5622 5622 5622 5619 5618 5616 5617 5618 5610 5611 5611 5611 5614 5610
5511 5511 5509 5510 5510 5511 5517 5518 5518 5515 5512 5517 5522 5522 5515 5527 5541 5548 5555 5564 5569 5574 5584 5591 5598 5605 5611 5619 5626 5630 5629 5625 5623 5620 5622 5621 5618 5611 5608 5608 5611 5608 5603
5524 5522 5522 5522 5520 5516 5520 5521 5520 5515 5522 5526 5527 5533 5531 5538 5544 5553 5560 5567 5576 5583 5588 5594 5600 5606 5617 5623 5628 5627 5625 5625 5624 5621 5619 5615 5610 5610 5609 5606 5605 5602 5601
5539 5535 5533 5532 5532 5537 5540 5538 5533 5527 5536 5538 5540 5544 5552 5556 5560 5567 5572 5577 5582 5587 5594 5599 5609 5614 5618 5620 5622 5625 5625 5624 5622 5618 5615 5615 5610 5606 5608 5605 5600 5591 5584
5566 5558 5551 5549 5548 5550 5552 5551 5551 5554 5553 5554 5555 5556 5555 5560 5564 5569 5576 5581 5587 5593 5599 5604 5610 5613 5613 5615 5619 5620 5614 5614 5615 5612 5610 5607 5606 5605 5600 5593 5586 5582 5582
5566 5568 5567 5567 5566 5567 5563 5560 5562 5564 5565 5565 5563 5561 5562 5565 5568 5573 5580 5584 5591 5596 5600 5602 5606 5608 5608 5609 5611 5608 5608 5608 5607 5607 5604 5602 5599 5596 5594 5588 5585 5583 5578